| time (UTC) | temp F | wind direction | speed MPH | gust MPH | rain 1hr in | rain 24hr in | rain mn in | humidity % | barometer mb |
| 20260506111703 | 68 | 205 | 2.0 | 6.0 | 0.00 | 0.00 | 0.00 | 62 | 1004.2 |
| 20260506110203 | 68 | 236 | 3.0 | 7.0 | 0.00 | 0.00 | 0.00 | 61 | 1004.3 |
| 20260506105204 | 68 | 164 | 3.0 | 10.0 | 0.00 | 0.00 | 0.00 | 61 | 1004.3 |
| 20260506104204 | 69 | 191 | 3.0 | 9.0 | 0.00 | 0.00 | 0.00 | 59 | 1004.4 |
| 20260506103204 | 68 | 126 | 2.0 | 6.0 | 0.00 | 0.00 | 0.00 | 63 | 1004.4 |
| 20260506102703 | 68 | 36 | 2.0 | 8.0 | 0.00 | 0.00 | 0.00 | 59 | 1004.5 |
| 20260506102203 | 68 | 193 | 3.0 | 8.0 | 0.00 | 0.00 | 0.00 | 62 | 1004.7 |
| 20260506095704 | 67 | 142 | 4.0 | 7.0 | 0.00 | 0.00 | 0.00 | 63 | 1005.0 |
| 20260506095203 | 68 | 230 | 2.0 | 6.0 | 0.00 | 0.00 | 0.00 | 62 | 1005.0 |
| 20260506092703 | 67 | 211 | 5.0 | 9.0 | 0.00 | 0.00 | 0.00 | 65 | 1005.3 |
| 20260506091204 | 65 | 115 | 4.0 | 9.0 | 0.00 | 0.00 | 0.00 | 69 | 1005.2 |
| 20260506085704 | 65 | 223 | 3.0 | 6.0 | 0.00 | 0.00 | 0.00 | 70 | 1005.3 |
| 20260506085204 | 64 | 260 | 2.0 | 8.0 | 0.00 | 0.00 | 0.00 | 69 | 1005.3 |
| 20260506082203 | 63 | 207 | 3.0 | 7.0 | 0.00 | 0.00 | 0.00 | 71 | 1005.2 |
| 20260506081204 | 62 | 231 | 2.0 | 12.0 | 0.00 | 0.00 | 0.00 | 73 | 1005.2 |
| 20260506073203 | 61 | 211 | 2.0 | 7.0 | 0.00 | 0.00 | 0.00 | 75 | 1005.3 |
| 20260506072203 | 61 | 212 | 3.0 | 6.0 | 0.00 | 0.00 | 0.00 | 77 | 1005.4 |
| 20260506071204 | 60 | 214 | 2.0 | 8.0 | 0.00 | 0.00 | 0.00 | 77 | 1005.4 |
| 20260506070204 | 60 | 221 | 2.0 | 8.0 | 0.00 | 0.00 | 0.00 | 78 | 1005.5 |
| 20260506062203 | 57 | 252 | 2.0 | 9.0 | 0.00 | 0.00 | 0.00 | 84 | 1005.5 |
| 20260506061704 | 57 | 228 | 5.0 | 9.0 | 0.00 | 0.00 | 0.00 | 84 | 1005.5 |
| 20260506061204 | 57 | 239 | 4.0 | 8.0 | 0.00 | 0.00 | 0.00 | 86 | 1005.5 |
| 20260506060704 | 57 | 221 | 3.0 | 8.0 | 0.00 | 0.00 | 0.00 | 86 | 1005.3 |
| 20260506060204 | 56 | 224 | 2.0 | 6.0 | 0.00 | 0.00 | 0.00 | 88 | 1005.3 |
| 20260506044204 | 51 | 161 | 1.0 | 2.0 | 0.00 | 0.00 | 0.00 | 98 | 1005.2 |
| 20260506042203 | 51 | 161 | 1.0 | 3.0 | 0.00 | 0.00 | 0.00 | 98 | 1004.6 |
| 20260506041704 | 51 | 177 | 1.0 | 3.0 | 0.00 | 0.00 | 0.00 | 97 | 1004.7 |
| 20260506041204 | 51 | 230 | 1.0 | 2.0 | 0.00 | 0.00 | 0.00 | 97 | 1004.9 |
| 20260506035204 | 51 | 230 | 1.0 | 2.0 | 0.00 | 0.00 | 0.00 | 97 | 1004.7 |
| 20260506034704 | 51 | 230 | 1.0 | 2.0 | 0.00 | 0.00 | 0.00 | 97 | 1004.8 |
| 20260506031704 | 51 | 230 | 0.0 | 2.0 | 0.00 | 0.00 | 0.00 | 96 | 1004.4 |
| 20260506025704 | 52 | 225 | 1.0 | 3.0 | 0.00 | 0.00 | 0.00 | 96 | 1004.6 |
| 20260506024704 | 52 | 225 | 2.0 | 5.0 | 0.00 | 0.00 | 0.00 | 96 | 1004.6 |
| 20260506023704 | 52 | 221 | 2.0 | 5.0 | 0.00 | 0.00 | 0.00 | 95 | 1004.7 |
| 20260506021704 | 52 | 242 | 1.0 | 3.0 | 0.00 | 0.00 | 0.00 | 95 | 1004.6 |
| 20260506014705 | 52 | 228 | 2.0 | 3.0 | 0.00 | 0.00 | 0.00 | 95 | 1004.8 |
| 20260506014204 | 53 | 218 | 1.0 | 5.0 | 0.00 | 0.00 | 0.00 | 94 | 1004.8 |
| 20260506013705 | 53 | 218 | 2.0 | 5.0 | 0.00 | 0.00 | 0.00 | 94 | 1004.8 |
| 20260506012703 | 53 | 222 | 2.0 | 5.0 | 0.00 | 0.00 | 0.00 | 94 | 1004.7 |
| 20260506012204 | 53 | 238 | 2.0 | 5.0 | 0.00 | 0.00 | 0.00 | 93 | 1004.6 |
| 20260506011704 | 53 | 231 | 2.0 | 5.0 | 0.00 | 0.00 | 0.00 | 92 | 1004.7 |
| 20260506010204 | 54 | 241 | 1.0 | 3.0 | 0.00 | 0.00 | 0.00 | 91 | 1004.5 |
| 20260506004704 | 55 | 264 | 1.0 | 3.0 | 0.00 | 0.00 | 0.00 | 89 | 1004.4 |
| 20260506004204 | 55 | 264 | 0.0 | 3.0 | 0.00 | 0.00 | 0.00 | 89 | 1004.3 |
| 20260506003704 | 55 | 261 | 1.0 | 3.0 | 0.00 | 0.00 | 0.00 | 88 | 1004.2 |
| 20260506002204 | 56 | 284 | 1.0 | 6.0 | 0.00 | 0.00 | 0.00 | 87 | 1004.0 |
| 20260506001204 | 56 | 240 | 2.0 | 5.0 | 0.00 | 0.00 | 0.00 | 87 | 1004.1 |
| 20260505235704 | 56 | 275 | 2.0 | 3.0 | 0.00 | 0.00 | 0.00 | 87 | 1003.5 |
| 20260505233204 | 58 | 284 | 5.0 | 10.0 | 0.00 | 0.00 | 0.00 | 84 | 1003.8 |
| 20260505232204 | 58 | 288 | 6.0 | 12.0 | 0.00 | 0.00 | 0.00 | 83 | 1003.9 |
| 20260505230704 | 59 | 297 | 7.0 | 13.0 | 0.00 | 0.00 | 0.00 | 80 | 1004.0 |
| 20260505224204 | 60 | 294 | 5.0 | 14.0 | 0.00 | 0.00 | 0.00 | 80 | 1004.2 |
| 20260505223204 | 60 | 290 | 8.0 | 12.0 | 0.00 | 0.00 | 0.00 | 80 | 1004.0 |
| 20260505222704 | 60 | 286 | 4.0 | 12.0 | 0.00 | 0.00 | 0.00 | 80 | 1004.1 |
| 20260505222204 | 60 | 286 | 5.0 | 10.0 | 0.00 | 0.00 | 0.00 | 81 | 1004.1 |
| 20260505221205 | 60 | 269 | 3.0 | 12.0 | 0.00 | 0.00 | 0.00 | 80 | 1004.0 |
| 20260505220706 | 60 | 293 | 6.0 | 13.0 | 0.00 | 0.00 | 0.00 | 80 | 1004.0 |
| 20260505215704 | 60 | 290 | 6.0 | 13.0 | 0.00 | 0.00 | 0.00 | 79 | 1003.5 |
| 20260505212204 | 60 | 203 | 2.0 | 10.0 | 0.00 | 0.00 | 0.00 | 72 | 1002.7 |
| 20260505210704 | 61 | 164 | 5.0 | 10.0 | 0.00 | 0.00 | 0.00 | 70 | 1002.5 |
| 20260505204705 | 61 | 150 | 5.0 | 12.0 | 0.00 | 0.00 | 0.00 | 69 | 1002.2 |
| 20260505204205 | 61 | 139 | 4.0 | 12.0 | 0.00 | 0.00 | 0.00 | 69 | 1002.0 |
| 20260505203704 | 61 | 100 | 5.0 | 12.0 | 0.00 | 0.00 | 0.00 | 69 | 1001.9 |
| 20260505201705 | 62 | 102 | 5.0 | 12.0 | 0.00 | 0.00 | 0.00 | 69 | 1001.7 |
| 20260505201204 | 62 | 83 | 6.0 | 12.0 | 0.00 | 0.00 | 0.00 | 69 | 1001.8 |
| 20260505200706 | 62 | 85 | 3.0 | 12.0 | 0.00 | 0.00 | 0.00 | 68 | 1001.7 |
| 20260505200204 | 62 | 99 | 5.0 | 12.0 | 0.00 | 0.00 | 0.00 | 68 | 1001.7 |
| 20260505195705 | 63 | 108 | 5.0 | 12.0 | 0.00 | 0.00 | 0.00 | 67 | 1001.8 |
| 20260505194203 | 63 | 113 | 8.0 | 13.0 | 0.00 | 0.00 | 0.00 | 67 | 1001.6 |
| 20260505193204 | 63 | 109 | 2.0 | 10.0 | 0.00 | 0.00 | 0.00 | 67 | 1001.7 |
| 20260505192704 | 63 | 106 | 5.0 | 10.0 | 0.00 | 0.00 | 0.00 | 67 | 1001.6 |
| 20260505191704 | 63 | 68 | 4.0 | 9.0 | 0.00 | 0.00 | 0.00 | 67 | 1001.6 |
| 20260505191204 | 64 | 68 | 3.0 | 8.0 | 0.00 | 0.00 | 0.00 | 67 | 1001.6 |
| 20260505190204 | 64 | 64 | 3.0 | 9.0 | 0.00 | 0.00 | 0.00 | 66 | 1001.7 |
| 20260505185704 | 64 | 79 | 3.0 | 7.0 | 0.00 | 0.00 | 0.00 | 67 | 1001.7 |
| 20260505185204 | 63 | 83 | 3.0 | 7.0 | 0.00 | 0.00 | 0.00 | 71 | 1001.6 |
| 20260505184205 | 64 | 45 | 3.0 | 7.0 | 0.00 | 0.00 | 0.00 | 70 | 1001.7 |
| 20260505183205 | 64 | 39 | 3.0 | 5.0 | 0.00 | 0.00 | 0.00 | 71 | 1001.6 |
| 20260505182706 | 63 | 27 | 2.0 | 6.0 | 0.00 | 0.00 | 0.00 | 71 | 1001.7 |
| 20260505182204 | 64 | 30 | 2.0 | 7.0 | 0.00 | 0.00 | 0.00 | 72 | 1001.7 |
| 20260505180704 | 64 | 31 | 3.0 | 9.0 | 0.00 | 0.00 | 0.00 | 71 | 1001.8 |
| 20260505174704 | 65 | 20 | 3.0 | 8.0 | 0.00 | 0.00 | 0.00 | 69 | 1001.7 |
| 20260505173704 | 66 | 9 | 3.0 | 8.0 | 0.00 | 0.00 | 0.00 | 66 | 1001.8 |
| 20260505173204 | 67 | 24 | 3.0 | 8.0 | 0.00 | 0.00 | 0.00 | 65 | 1001.8 |
| 20260505171203 | 68 | 30 | 1.0 | 3.0 | 0.00 | 0.00 | 0.00 | 61 | 1001.9 |
| 20260505170203 | 68 | 46 | 1.0 | 2.0 | 0.00 | 0.00 | 0.00 | 60 | 1002.0 |
| 20260505165704 | 68 | 51 | 1.0 | 2.0 | 0.00 | 0.00 | 0.00 | 59 | 1002.1 |
| 20260505165203 | 69 | 51 | 1.0 | 2.0 | 0.00 | 0.00 | 0.00 | 59 | 1002.1 |
| 20260505164703 | 69 | 51 | 1.0 | 2.0 | 0.00 | 0.00 | 0.00 | 58 | 1002.2 |
| 20260505164204 | 69 | 51 | 1.0 | 2.0 | 0.00 | 0.00 | 0.00 | 59 | 1002.2 |
| 20260505163203 | 70 | 55 | 1.0 | 2.0 | 0.00 | 0.00 | 0.00 | 55 | 1002.3 |
| 20260505161703 | 70 | 115 | 2.0 | 3.0 | 0.00 | 0.00 | 0.00 | 52 | 1002.4 |
| 20260505161203 | 70 | 165 | 2.0 | 5.0 | 0.00 | 0.00 | 0.00 | 52 | 1002.5 |
| 20260505153203 | 71 | 121 | 5.0 | 12.0 | 0.00 | 0.00 | 0.00 | 52 | 1002.5 |
| 20260505152204 | 71 | 154 | 5.0 | 9.0 | 0.00 | 0.00 | 0.00 | 52 | 1002.5 |
| 20260505151703 | 71 | 124 | 5.0 | 12.0 | 0.00 | 0.00 | 0.00 | 53 | 1002.5 |
| 20260505124205 | 74 | 117 | 5.0 | 13.0 | 0.00 | 0.00 | 0.00 | 50 | 1003.6 |
| 20260505123703 | 75 | 102 | 5.0 | 12.0 | 0.00 | 0.00 | 0.00 | 51 | 1003.7 |
| 20260505122704 | 75 | 122 | 7.0 | 12.0 | 0.00 | 0.00 | 0.00 | 51 | 1003.8 |
| 20260505115703 | 75 | 136 | 6.0 | 12.0 | 0.00 | 0.00 | 0.00 | 51 | 1004.0 |
| 20260505115203 | 75 | 132 | 6.0 | 12.0 | 0.00 | 0.00 | 0.00 | 52 | 1004.0 |
| 20260505113704 | 75 | 140 | 6.0 | 9.0 | 0.00 | 0.00 | 0.00 | 52 | 1004.1 |
| 20260505112703 | 75 | 112 | 3.0 | 10.0 | 0.00 | 0.00 | 0.00 | 51 | 1004.3 |